Vorticity
nan nan nan nan nan nan nan nan nan nan nan nan nan nan nan nan nan nan nan nan nan nan nan nan nan nan nan nan nan nan nan nan nan
nan 10 8 7 8 7 8 8 9 9 9 8 7 6 7 8 7 8 8 6 5 6 7 7 6 6 6 8 7 6 5 4 nan
nan 8 10 9 9 7 5 6 9 8 9 10 9 8 7 7 8 8 8 7 5 9 11 8 6 5 7 7 5 5 5 4 nan
nan 7 7 7 10 12 9 8 7 8 8 11 11 10 10 8 6 8 7 7 11 11 9 8 7 8 7 6 6 5 5 5 nan
nan 7 7 8 9 8 11 10 9 10 8 7 10 11 10 9 9 9 4 5 13 13 6 8 9 7 8 10 7 6 5 4 nan
nan 7 6 7 8 9 8 8 9 9 6 5 8 9 9 8 9 6 5 8 9 11 9 6 10 15 15 13 12 9 5 6 nan
nan 3 2 3 5 5 7 7 8 9 8 5 5 6 7 7 7 4 7 12 12 11 12 10 7 10 11 11 8 10 14 9 nan
nan 6 4 2 4 6 6 7 5 6 9 9 7 8 7 8 6 1 4 13 16 15 16 18 11 1 2 3 2 4 12 11 nan
nan 8 7 8 5 7 8 7 7 7 7 8 9 10 9 9 7 4 3 7 14 15 13 17 20 18 13 10 11 4 0 4 nan
nan 7 8 8 7 7 8 8 7 7 7 7 7 7 7 10 11 6 5 7 10 10 6 11 14 15 10 6 18 21 9 4 nan
nan 8 8 7 8 8 8 7 8 8 7 7 7 8 10 8 10 11 6 5 10 14 11 7 9 8 8 7 4 3 18 15 nan
nan 8 8 7 8 8 8 8 8 8 8 9 9 8 9 9 9 10 9 4 2 10 18 18 12 5 2 1 3 6 5 9 nan
nan 8 7 8 9 8 7 8 8 8 8 9 9 8 6 7 8 9 10 9 4 -1 4 15 19 13 10 8 5 2 2 2 nan
nan 8 7 8 9 8 7 9 9 8 7 7 8 8 7 7 6 7 8 9 11 5 0 1 4 13 19 18 14 10 9 6 nan
nan 8 8 9 9 8 9 7 9 9 7 6 6 7 7 8 7 6 6 7 8 9 7 5 -1 -2 6 11 16 20 18 17 nan
nan 9 8 9 9 8 10 8 5 8 11 9 6 6 6 7 8 7 6 7 6 8 10 10 8 -1 -3 3 6 14 23 25 nan
nan 8 8 9 8 7 9 11 10 6 10 12 8 7 7 4 6 8 6 7 8 6 7 8 9 10 3 -2 2 7 13 22 nan
nan 8 8 9 9 8 7 8 10 9 7 10 11 8 8 7 5 7 8 7 8 6 6 6 7 8 7 5 1 5 10 10 nan
nan 8 8 9 8 8 9 9 9 9 9 7 7 10 9 8 9 6 6 6 7 8 8 6 6 8 6 2 3 8 12 9 nan
nan nan nan nan nan nan nan nan nan nan nan nan nan nan nan nan nan nan nan nan nan nan nan nan nan nan nan nan nan nan nan nan nan
CAPE
2 1 31 103 353 717 700 768 966 1234 978 793 908 949 1020 859 278 128 174 228 433 999 941 1057 914 761 700 879 1120 1116 1100 740 510
0 0 4 245 445 563 643 809 984 1046 1095 890 870 1066 859 574 163 93 89 184 647 818 860 992 1084 747 825 784 939 997 807 539 366
1 12 136 131 242 374 500 585 863 899 926 947 869 898 756 507 101 54 39 112 552 685 954 1044 1144 901 928 864 904 1065 783 535 377
12 10 24 116 347 314 281 463 691 857 870 912 880 694 790 503 173 89 71 198 590 577 711 812 872 1048 966 1051 891 1014 1101 752 558
1 2 16 14 57 178 353 431 585 681 601 531 405 333 491 271 231 167 106 405 601 532 311 523 603 704 1106 887 660 830 755 964 752
0 1 1 3 5 31 139 174 211 209 65 195 257 117 58 55 97 133 272 510 771 546 495 513 430 560 691 802 690 513 549 701 843
0 0 0 0 0 0 1 22 4 4 2 5 58 3 34 34 19 54 216 492 619 654 655 526 422 273 234 132 55 136 295 439 645
0 0 0 0 0 0 0 0 0 0 5 14 0 0 0 0 35 18 126 563 654 452 403 422 476 298 121 75 18 0 61 161 276
0 0 0 0 0 0 0 0 0 0 0 0 0 56 85 8 20 36 15 283 561 463 421 346 366 399 130 167 152 69 28 108 101
0 0 0 0 0 0 0 0 0 0 0 0 0 0 0 25 133 96 53 157 362 386 378 415 458 367 292 126 166 130 84 74 136
0 0 0 0 0 0 0 0 0 0 0 0 0 0 0 0 3 8 31 99 120 200 201 231 356 310 146 96 97 123 161 163 68
0 0 0 0 0 0 0 0 0 0 0 0 0 0 0 1 2 2 2 2 5 7 60 182 218 234 176 61 18 79 48 76 50
0 0 0 0 0 0 0 0 0 0 0 0 0 1 1 0 1 1 2 3 3 5 10 11 59 33 53 57 43 33 67 91 57
0 0 0 0 0 0 0 0 0 0 0 0 0 0 0 1 0 1 1 1 2 3 8 9 6 9 68 140 102 85 22 95 152
0 0 0 0 0 0 0 0 0 0 0 0 0 0 0 0 0 0 0 1 0 1 2 3 4 11 14 14 29 122 109 108 202
0 0 0 0 0 0 0 0 0 0 0 0 0 0 0 0 0 0 0 0 0 0 0 1 2 2 9 10 15 11 165 165 158
0 0 0 0 0 0 0 0 0 0 0 0 0 0 0 0 0 0 0 0 0 0 0 0 0 1 2 5 9 9 42 189 161
0 0 0 0 0 0 0 0 0 0 0 0 0 0 0 0 0 0 0 0 0 0 0 0 0 0 0 0 2 7 8 52 101
0 0 0 0 0 0 0 0 0 0 0 0 0 0 0 0 0 0 0 0 0 0 0 0 0 0 0 0 2 7 10 26 45
0 0 0 0 0 0 0 0 0 0 0 0 0 0 0 0 0 0 0 0 0 0 0 0 0 0 0 0 0 6 12 27 44